Probability
23 23 42 48 6 0 0 0 0 0 0 0 0 0 0 0 0 19 16 3 6 26 58 94 100 100 100 100 100 100 100 100 100 100 100 100 100 100 100 100 100 97 94 94 94 90 90 87 90
16 23 35 10 0 0 0 0 0 0 0 3 0 0 0 29 32 19 16 13 13 29 68 90 100 100 100 100 100 100 100 100 100 100 100 100 100 100 100 100 94 94 94 90 90 90 90 90 94
13 13 6 0 0 0 0 0 3 6 3 3 3 6 13 26 23 16 26 16 19 68 94 97 100 100 100 100 100 100 100 100 100 100 100 100 100 100 100 100 94 94 94 94 90 94 90 90 94
6 10 0 0 0 0 0 0 3 3 3 3 0 3 23 29 19 23 32 23 48 71 77 97 100 100 100 100 100 100 100 100 100 100 100 100 100 100 100 100 97 97 97 97 100 97 97 94 94
3 0 0 0 0 0 0 0 3 0 6 3 3 3 45 58 42 48 39 26 45 58 77 90 100 100 100 100 100 100 100 100 100 100 100 100 100 100 100 100 100 100 94 97 97 97 97 90 87
0 0 0 0 0 0 0 0 0 6 6 0 3 13 55 74 65 58 42 32 35 65 71 100 100 100 100 100 100 100 100 100 100 100 100 100 100 100 100 100 97 97 100 94 90 90 90 94 87
0 0 0 0 0 0 0 0 3 6 10 3 3 23 48 71 65 48 42 42 35 58 77 94 97 100 100 100 100 100 100 100 100 100 97 97 97 97 97 97 97 90 97 94 84 90 94 87 87
0 0 0 0 0 0 3 6 6 10 13 13 10 16 39 71 68 52 48 48 55 68 74 97 84 100 100 100 100 100 100 100 100 100 97 97 97 97 97 97 97 87 81 77 77 81 90 90 81
0 0 0 0 0 0 3 6 10 16 23 26 29 29 52 77 65 65 61 61 68 77 81 81 84 100 94 97 97 100 100 100 100 100 97 100 87 77 97 87 94 87 84 77 77 77 90 77 81
0 0 0 0 0 0 3 6 10 16 26 45 55 68 77 77 81 74 65 68 84 94 90 87 84 97 97 77 94 94 87 90 90 97 90 90 90 81 71 94 84 81 77 74 68 71 68 61 71
0 0 0 0 0 0 3 6 10 13 19 29 55 81 84 87 84 81 68 65 84 100 94 87 97 97 97 97 90 90 87 94 87 90 84 94 77 55 61 74 74 77 71 48 55 45 39 26 45
0 0 0 0 0 3 3 6 3 6 16 35 58 84 90 84 77 71 74 68 84 94 97 87 94 97 97 97 97 90 87 84 77 87 84 77 71 68 65 74 55 58 65 61 35 58 45 45 35
0 0 0 0 3 3 3 3 6 13 29 39 68 87 90 81 74 71 71 74 84 90 94 90 94 90 90 90 87 71 81 71 84 87 81 77 61 61 71 77 74 42 42 45 48 45 61 48 42
0 0 0 0 3 3 6 13 10 32 39 61 77 87 84 81 74 71 68 81 84 87 94 94 90 87 84 87 90 84 71 90 81 77 81 84 61 61 61 68 71 48 42 35 35 39 52 45 45
0 0 0 0 3 6 6 13 19 35 48 68 74 90 84 81 84 84 81 90 87 90 90 94 87 84 84 84 77 71 65 71 74 87 90 74 68 71 65 48 58 48 35 52 61 48 42 45 39
0 0 0 0 3 13 10 3 26 39 48 68 74 90 94 94 90 87 81 87 87 90 94 94 81 84 87 81 77 68 65 55 71 68 77 68 68 71 84 55 55 52 48 55 52 42 48 42 52
0 0 0 0 3 3 3 10 29 42 45 71 74 84 94 94 94 94 84 81 87 87 94 90 81 87 87 87 77 77 81 71 74 61 61 68 68 68 65 71 68 71 58 52 45 35 45 48 42
0 0 0 0 0 3 0 16 32 42 52 55 71 84 94 94 94 94 94 87 84 87 90 87 94 94 90 87 84 77 77 71 74 65 68 68 71 71 68 71 77 61 55 52 61 48 58 45 48
0 0 0 0 0 3 3 19 35 45 52 58 74 84 90 94 94 94 94 90 84 87 87 97 94 94 94 90 84 81 77 74 71 68 52 55 61 61 74 58 81 68 61 58 39 55 45 35 39
0 0 0 0 3 3 10 13 39 42 55 58 71 81 90 94 90 94 97 97 90 97 94 94 90 90 90 87 87 81 87 71 61 61 61 58 58 61 55 81 61 61 68 68 65 65 58 35 29
0 0 0 0 3 3 3 10 39 45 55 58 68 68 74 87 90 94 94 94 94 97 94 84 90 90 87 87 77 68 74 65 52 55 61 55 65 61 68 65 65 65 58 65 71 68 61 42 42
0 0 0 0 0 0 0 0 16 35 52 61 65 74 74 87 87 97 94 94 94 97 90 94 94 87 84 81 71 58 58 48 52 55 65 58 65 61 58 61 58 68 61 71 58 52 61 55 45
0 0 0 0 0 0 0 0 0 26 32 48 61 74 74 74 87 87 97 97 87 87 87 90 90 81 74 71 71 68 58 58 55 58 58 61 61 58 61 61 61 68 58 55 52 58 58 48 45
0 0 0 0 0 0 0 0 0 3 16 32 48 68 68 71 84 90 87 94 87 77 77 77 74 77 68 68 65 65 58 61 48 58 55 65 61 52 52 55 58 58 48 45 48 58 52 52 58
0 0 0 0 0 0 0 0 0 6 13 32 42 65 68 68 81 90 87 90 87 77 71 74 74 71 65 61 68 65 65 61 55 45 45 39 35 48 48 42 58 55 61 48 52 45 52 45 52
0 0 0 0 0 0 0 0 3 6 13 32 45 61 61 68 84 87 87 87 87 77 71 77 74 74 68 65 65 65 68 55 45 42 39 39 45 35 39 48 45 48 45 39 55 42 45 52 52
0 0 0 0 0 0 0 0 6 16 23 35 55 55 74 81 87 84 87 84 81 74 77 77 81 77 81 71 65 65 55 52 45 52 52 39 61 42 42 48 45 48 48 48 55 48 48 52 45
0 0 0 0 0 0 0 0 0 16 19 39 58 58 74 84 84 84 77 81 77 77 77 74 84 84 81 74 61 55 58 58 61 61 55 52 55 52 42 42 42 42 45 52 58 45 48 52 48
0 0 0 0 0 0 0 0 0 13 19 29 48 68 77 84 81 87 84 84 77 71 71 74 81 81 74 71 61 58 65 61 58 55 55 55 48 52 45 39 42 39 45 45 55 39 39 32 42
0 0 0 0 0 0 0 0 0 13 16 29 48 71 77 90 87 87 77 77 77 71 71 71 71 71 65 58 55 58 52 52 52 52 55 58 55 48 39 35 39 35 35 42 39 32 26 29 29
Height
5914 5914 5914 5915 5916 5917 5914 5912 5911 5909 5908 5907 5906 5905 5904 5904 5905 5907 5904 5902 5902 5902 5901 5901 5902 5902 5901 5901 5901 5901 5901 5901 5901 5901 5901 5901 5901 5901 5902 5902 5902 5902 5902 5902 5902 5902 5902 5902 5903
5917 5916 5917 5918 5920 5918 5916 5914 5913 5911 5910 5908 5907 5906 5906 5905 5905 5904 5903 5903 5903 5902 5902 5902 5902 5902 5902 5902 5902 5902 5902 5901 5901 5901 5902 5902 5902 5902 5902 5902 5902 5902 5902 5902 5903 5903 5903 5903 5903
5919 5919 5920 5921 5921 5920 5918 5916 5914 5913 5911 5910 5909 5908 5907 5906 5906 5905 5904 5904 5904 5903 5903 5903 5903 5903 5902 5902 5902 5902 5902 5902 5902 5902 5902 5902 5903 5903 5903 5903 5903 5903 5903 5903 5903 5903 5903 5904 5904
5921 5922 5923 5925 5923 5921 5920 5918 5916 5914 5913 5911 5910 5909 5908 5907 5907 5906 5905 5905 5904 5904 5903 5903 5903 5903 5903 5903 5903 5903 5903 5903 5903 5903 5903 5903 5903 5903 5903 5903 5903 5903 5903 5903 5904 5904 5904 5904 5904
5923 5925 5927 5927 5924 5923 5921 5919 5918 5916 5915 5913 5912 5911 5909 5909 5908 5907 5906 5905 5905 5905 5904 5904 5904 5903 5903 5903 5903 5903 5904 5904 5904 5904 5904 5904 5904 5904 5904 5904 5904 5904 5904 5904 5904 5904 5905 5905 5905
5926 5928 5931 5929 5926 5925 5923 5921 5920 5918 5917 5915 5914 5913 5911 5910 5909 5908 5907 5907 5906 5905 5905 5904 5904 5903 5903 5903 5903 5904 5904 5904 5904 5904 5904 5904 5904 5904 5904 5904 5904 5904 5904 5904 5905 5905 5905 5905 5905
5929 5931 5931 5930 5928 5927 5925 5923 5921 5920 5919 5917 5916 5915 5913 5912 5911 5910 5909 5908 5907 5906 5905 5905 5904 5903 5903 5903 5903 5903 5904 5904 5904 5905 5905 5905 5904 5904 5904 5905 5905 5905 5905 5905 5905 5905 5906 5906 5906
5929 5932 5932 5931 5930 5929 5927 5925 5923 5922 5921 5920 5918 5916 5915 5914 5912 5911 5910 5909 5908 5907 5906 5905 5904 5903 5903 5903 5903 5903 5904 5904 5904 5905 5905 5905 5905 5905 5905 5905 5905 5905 5905 5905 5905 5906 5906 5906 5906
5931 5935 5934 5933 5932 5930 5928 5927 5926 5924 5922 5921 5920 5918 5917 5915 5914 5912 5911 5910 5909 5908 5907 5906 5904 5903 5902 5902 5902 5903 5903 5904 5904 5904 5905 5905 5905 5905 5905 5905 5905 5905 5906 5906 5906 5906 5906 5906 5907
5933 5936 5934 5933 5932 5931 5930 5929 5927 5925 5924 5923 5921 5920 5918 5917 5915 5914 5912 5911 5910 5909 5907 5906 5905 5903 5902 5902 5902 5902 5903 5903 5904 5904 5905 5905 5905 5905 5905 5905 5906 5906 5906 5906 5906 5906 5906 5907 5907
5933 5935 5934 5933 5933 5932 5931 5930 5929 5927 5926 5925 5923 5922 5920 5918 5917 5915 5914 5912 5911 5909 5908 5906 5905 5904 5903 5902 5902 5902 5902 5903 5904 5904 5905 5905 5905 5905 5905 5905 5906 5906 5907 5907 5907 5907 5907 5907 5907
5934 5934 5934 5934 5934 5933 5932 5931 5930 5929 5928 5927 5925 5923 5921 5920 5918 5916 5914 5913 5911 5910 5908 5907 5905 5904 5903 5902 5902 5901 5902 5903 5903 5904 5904 5905 5905 5905 5905 5906 5906 5907 5907 5907 5907 5907 5907 5907 5907
5934 5935 5935 5935 5934 5934 5933 5933 5932 5930 5929 5927 5925 5924 5922 5921 5919 5917 5916 5914 5912 5911 5909 5907 5906 5905 5903 5902 5901 5901 5902 5902 5903 5904 5904 5905 5905 5905 5905 5906 5906 5907 5907 5907 5907 5907 5907 5907 5907
5934 5935 5935 5935 5935 5935 5934 5934 5933 5931 5930 5929 5927 5925 5923 5922 5920 5918 5916 5915 5913 5911 5909 5907 5906 5904 5903 5902 5901 5901 5901 5901 5902 5903 5904 5904 5905 5905 5906 5906 5907 5907 5907 5907 5907 5907 5907 5907 5908
5934 5935 5936 5936 5936 5935 5935 5935 5934 5932 5931 5929 5928 5926 5924 5923 5921 5919 5917 5915 5913 5911 5909 5907 5906 5904 5903 5902 5901 5900 5900 5900 5901 5902 5903 5904 5904 5905 5905 5906 5907 5907 5907 5907 5907 5907 5907 5908 5908
5935 5936 5937 5937 5936 5936 5937 5938 5935 5933 5932 5930 5929 5927 5925 5923 5921 5919 5917 5915 5913 5911 5909 5907 5905 5904 5903 5902 5901 5900 5900 5900 5901 5901 5902 5903 5903 5904 5905 5906 5906 5906 5907 5907 5907 5907 5907 5907 5908
5935 5936 5937 5937 5936 5936 5937 5937 5935 5934 5932 5931 5929 5928 5926 5924 5922 5920 5918 5915 5913 5911 5908 5907 5905 5904 5902 5901 5901 5900 5900 5900 5900 5900 5901 5902 5902 5903 5904 5905 5905 5906 5906 5906 5907 5907 5907 5907 5908
5935 5935 5936 5936 5936 5936 5936 5936 5935 5934 5933 5931 5930 5928 5926 5924 5922 5920 5918 5915 5913 5910 5908 5906 5905 5903 5902 5901 5900 5900 5899 5899 5899 5899 5900 5900 5901 5902 5903 5904 5905 5905 5906 5906 5907 5907 5907 5907 5907
5932 5933 5934 5934 5935 5935 5935 5935 5935 5934 5933 5931 5930 5928 5926 5924 5922 5920 5917 5915 5912 5910 5908 5906 5905 5903 5902 5901 5900 5899 5899 5899 5899 5899 5899 5899 5900 5901 5902 5903 5904 5904 5905 5906 5906 5907 5907 5907 5907
5930 5931 5932 5933 5933 5934 5934 5934 5934 5933 5932 5931 5929 5928 5926 5924 5921 5919 5917 5914 5912 5910 5907 5906 5904 5903 5901 5900 5899 5898 5898 5898 5898 5898 5898 5898 5899 5899 5900 5902 5902 5903 5904 5905 5905 5906 5906 5906 5907
5928 5929 5930 5931 5932 5933 5934 5934 5933 5932 5931 5930 5929 5927 5925 5923 5921 5918 5916 5914 5911 5909 5907 5905 5903 5902 5901 5899 5898 5897 5897 5897 5897 5897 5897 5897 5897 5898 5899 5900 5901 5902 5903 5903 5904 5905 5905 5906 5906
5925 5927 5928 5929 5931 5932 5933 5935 5932 5930 5930 5929 5928 5926 5924 5922 5920 5918 5915 5913 5911 5908 5906 5904 5903 5901 5900 5899 5898 5897 5896 5896 5895 5895 5895 5896 5896 5897 5897 5898 5899 5900 5901 5902 5902 5903 5904 5904 5905
5922 5924 5926 5927 5929 5930 5931 5932 5933 5929 5928 5927 5926 5924 5923 5921 5919 5917 5914 5912 5910 5907 5905 5903 5902 5900 5899 5897 5896 5895 5894 5894 5893 5893 5893 5894 5895 5895 5896 5896 5897 5898 5899 5900 5901 5902 5902 5902 5903
5919 5922 5923 5925 5927 5928 5928 5929 5930 5927 5926 5925 5924 5922 5921 5920 5918 5916 5914 5911 5908 5906 5904 5902 5900 5899 5898 5896 5895 5894 5893 5892 5892 5891 5892 5892 5893 5893 5894 5894 5895 5896 5897 5898 5898 5899 5900 5900 5901
5916 5919 5922 5923 5925 5926 5925 5926 5927 5925 5923 5922 5921 5920 5919 5918 5917 5915 5912 5910 5908 5906 5904 5902 5899 5898 5897 5896 5894 5893 5892 5891 5890 5889 5890 5890 5891 5891 5892 5892 5892 5893 5894 5895 5896 5897 5897 5898 5898
5912 5916 5920 5922 5924 5924 5921 5922 5923 5921 5920 5920 5919 5918 5917 5916 5915 5914 5911 5909 5907 5905 5903 5901 5899 5898 5896 5895 5894 5892 5891 5890 5889 5888 5888 5888 5889 5889 5889 5890 5890 5891 5891 5892 5893 5894 5894 5895 5895
5908 5911 5915 5917 5918 5920 5920 5919 5919 5918 5918 5917 5917 5916 5915 5915 5914 5912 5910 5908 5906 5904 5903 5901 5899 5897 5896 5894 5893 5891 5890 5889 5888 5887 5887 5886 5887 5887 5887 5888 5888 5888 5889 5889 5889 5890 5891 5891 5891
5903 5906 5909 5912 5914 5916 5917 5916 5916 5915 5915 5915 5914 5914 5913 5913 5912 5911 5909 5907 5905 5903 5902 5900 5898 5897 5895 5894 5892 5891 5889 5888 5887 5886 5886 5885 5885 5885 5885 5885 5886 5886 5886 5885 5886 5886 5887 5887 5887
5899 5902 5904 5907 5910 5913 5915 5916 5912 5912 5912 5912 5912 5912 5911 5911 5910 5909 5908 5906 5904 5902 5900 5899 5897 5895 5894 5893 5891 5890 5889 5888 5886 5885 5885 5884 5884 5883 5883 5883 5883 5882 5882 5882 5882 5882 5883 5883 5883
5893 5896 5900 5903 5904 5907 5910 5914 5908 5908 5908 5909 5909 5909 5908 5908 5908 5906 5905 5904 5902 5900 5899 5897 5895 5894 5892 5891 5890 5889 5888 5887 5885 5884 5883 5883 5882 5881 5881 5880 5880 5880 5879 5879 5879 5879 5879 5878 5878
Wind_Speed
18 17 17 17 20 16 16 17 17 17 16 16 16 15 14 12 11 10 9 8 6 6 5 5 4 5 5 6 7 8 8 9 9 9 9 9 9 8 8 8 7 6 5 5 5 4 4 4 4
17 16 16 18 17 15 16 17 17 17 17 16 16 15 14 13 11 10 9 8 7 6 5 4 3 4 5 5 6 7 8 8 8 9 9 8 8 8 7 7 6 6 5 5 5 4 4 4 4
16 15 16 16 14 14 15 17 17 18 17 17 17 16 15 13 12 10 9 9 8 6 5 4 3 3 4 5 6 6 7 8 8 8 8 8 7 7 7 6 6 6 5 5 5 4 4 4 4
15 15 16 15 13 14 16 16 16 18 18 18 18 17 16 14 12 10 9 9 7 6 5 3 3 4 4 5 5 6 7 8 8 8 8 8 7 7 7 7 6 6 6 5 5 5 5 4 4
15 16 15 13 13 14 15 16 17 18 19 19 19 18 17 15 13 12 10 9 8 6 5 4 3 3 4 4 5 6 6 7 8 7 7 7 7 7 7 7 6 6 6 5 5 5 5 4 4
15 15 12 11 12 14 15 15 17 18 18 18 18 17 17 16 14 13 12 11 9 7 5 4 3 3 3 4 4 5 6 6 7 7 7 7 7 7 7 6 6 6 6 6 6 5 5 5 4
14 13 11 11 12 13 14 14 16 17 17 18 18 17 17 16 14 13 13 12 10 9 7 5 3 2 2 3 4 5 6 6 6 6 6 6 6 6 6 5 5 5 6 6 6 5 5 5 5
12 12 10 10 11 12 13 14 15 16 17 17 18 18 17 17 15 13 12 12 11 10 8 6 5 3 1 2 3 4 5 5 5 6 6 5 5 5 5 5 5 5 5 5 5 5 5 4 4
12 11 9 9 10 11 12 13 14 15 16 16 17 17 17 16 15 13 11 11 10 9 8 7 6 5 3 2 2 4 5 5 5 6 6 5 5 5 5 4 4 5 5 5 5 5 5 4 4
11 9 9 9 10 10 11 12 13 14 15 15 15 15 15 16 16 14 12 10 10 9 8 7 6 5 3 1 2 4 5 5 5 5 5 5 4 4 4 4 4 4 4 5 5 5 5 4 4
9 9 9 9 9 10 10 11 11 13 13 14 14 14 15 15 16 15 12 11 10 9 8 7 6 4 3 1 1 3 4 5 5 5 5 4 4 4 4 4 4 4 4 4 4 5 4 4 3
7 7 8 9 9 9 9 9 10 10 11 11 12 13 14 15 15 15 13 12 11 10 9 7 6 5 4 1 0 2 3 4 5 5 4 4 4 4 4 4 4 3 3 4 4 4 4 3 3
6 6 6 7 7 8 8 8 8 9 9 10 11 12 12 14 14 14 13 12 11 11 10 9 7 6 5 2 0 2 3 3 5 5 4 4 4 4 4 4 4 3 3 3 3 3 3 3 3
4 4 4 4 5 6 7 7 7 7 8 9 10 11 12 13 14 14 14 13 12 11 10 9 8 8 7 4 1 2 3 4 5 6 5 5 5 5 5 4 4 3 3 2 2 2 2 2 2
3 2 2 2 3 4 6 6 5 6 7 8 9 10 11 12 13 13 13 13 13 12 11 10 9 8 7 5 2 2 2 3 5 6 6 6 6 6 6 5 5 4 3 2 2 2 2 2 2
2 1 0 1 2 3 4 2 3 5 6 7 8 9 10 11 12 13 13 13 13 13 12 11 10 9 7 6 3 1 2 3 4 5 6 6 6 6 6 6 5 4 3 3 2 2 2 2 2
3 3 2 2 1 2 2 1 3 4 5 7 8 9 9 11 12 13 13 13 13 13 12 11 10 9 7 5 4 2 2 3 3 5 6 7 7 6 7 7 6 6 5 4 3 3 2 2 2
6 5 4 3 1 2 2 3 4 4 5 6 8 9 10 11 12 12 12 13 13 13 12 10 9 9 7 6 5 3 2 3 3 4 5 7 7 7 7 7 7 6 5 4 4 3 3 3 3
8 6 5 5 3 3 3 4 5 5 5 6 8 9 10 11 12 12 12 12 12 12 11 9 8 8 8 6 5 4 3 3 3 4 6 7 8 8 8 8 8 7 6 5 5 4 4 3 3
9 8 7 6 4 4 4 5 6 6 6 6 8 10 11 11 11 12 12 12 12 11 10 9 8 8 8 6 5 4 4 3 3 4 5 6 7 7 8 8 8 8 8 7 6 5 4 4 4
11 10 9 7 6 5 5 7 7 7 7 7 9 10 11 11 11 13 12 12 12 10 9 9 9 9 7 6 5 4 4 4 5 5 6 6 7 8 8 8 8 8 9 8 8 7 6 6 5
14 12 11 9 8 8 5 6 10 8 9 9 10 10 10 10 11 12 12 13 11 10 10 9 9 9 8 7 6 6 5 6 5 6 7 7 6 7 8 9 9 8 9 9 9 8 7 7 7
16 14 12 11 10 9 8 6 10 10 10 10 10 10 9 10 11 12 12 13 11 10 9 8 8 8 7 7 7 6 6 6 6 7 8 8 8 8 9 10 10 10 10 10 10 10 9 9 8
17 15 14 13 12 11 10 8 9 11 11 11 11 10 10 10 11 11 11 12 11 10 9 8 8 7 7 7 7 7 6 6 7 7 7 8 8 9 9 10 11 11 11 12 12 12 11 11 10
19 17 15 14 13 13 12 10 11 12 11 11 11 10 10 10 9 10 11 11 10 9 9 8 8 7 6 7 6 6 5 5 6 6 7 7 7 8 10 10 11 11 12 12 13 13 13 12 12
20 19 16 14 12 13 14 12 12 12 11 11 10 9 9 9 10 10 10 11 10 9 9 8 8 7 6 6 6 6 5 6 6 6 6 7 7 9 9 9 10 11 12 13 14 14 14 14 14
23 21 19 17 16 14 15 14 13 12 11 11 9 9 9 9 10 10 10 10 10 9 9 9 9 7 7 6 6 6 5 5 6 6 6 6 8 9 10 10 10 11 12 14 15 15 15 16 15
25 23 22 19 17 15 15 14 13 13 12 11 10 10 10 10 10 11 10 10 10 10 10 10 9 8 8 7 7 6 5 5 6 6 6 7 8 9 10 11 12 12 13 14 14 16 17 17 18
25 24 23 21 20 16 13 14 14 13 12 11 11 11 11 12 12 12 11 11 11 11 10 10 10 9 9 8 7 7 6 6 7 7 8 8 8 9 10 11 12 13 13 14 14 16 17 18 19
27 25 24 23 21 19 15 15 15 13 12 12 12 13 13 12 13 13 12 12 12 11 11 10 10 10 10 9 9 8 8 8 7 7 8 9 9 10 10 10 11 13 13 14 15 16 18 19 20
Wind_Direction
84 81 78 75 70 73 75 74 72 71 70 69 68 69 70 72 73 77 79 80 81 85 95 106 116 124 129 129 126 121 117 115 115 112 108 105 103 103 101 99 99 99 101 101 102 103 101 98 99
84 80 76 72 75 73 71 72 69 68 67 66 65 64 64 66 68 72 75 76 74 77 89 100 112 128 133 132 129 123 120 118 118 116 113 109 106 105 103 101 101 100 100 101 107 106 105 102 107
85 80 75 73 76 74 70 69 69 66 64 64 63 63 60 60 62 66 71 73 70 72 81 92 110 130 137 133 130 129 126 124 123 121 117 114 111 108 107 104 103 105 104 100 100 101 102 105 109
85 81 75 76 74 71 69 67 65 64 62 61 61 60 58 58 58 61 66 68 68 70 77 85 108 126 136 139 138 135 131 129 128 125 122 119 114 109 108 108 105 106 105 103 102 103 103 107 113
87 81 77 77 76 71 68 66 63 61 59 58 59 58 57 56 55 56 60 60 60 62 65 70 93 122 133 139 143 142 136 132 132 129 125 121 119 113 110 111 109 106 106 106 102 102 105 103 108
88 83 84 78 73 69 66 63 62 58 56 55 55 56 57 55 53 52 53 53 51 52 51 55 72 108 133 146 149 151 149 142 138 133 128 125 122 119 116 114 111 108 108 108 103 101 105 104 112
93 91 86 77 70 66 64 61 60 58 55 54 54 54 55 53 51 49 49 48 47 45 42 43 53 85 113 154 164 162 159 155 150 142 135 130 126 125 121 118 113 111 109 110 108 104 103 101 103
94 88 81 72 68 67 64 61 59 58 56 56 56 53 52 49 47 45 46 45 43 39 38 38 45 48 67 153 173 174 169 165 160 153 145 137 130 130 126 122 116 111 111 111 112 111 109 101 99
95 88 79 71 67 66 64 60 57 57 57 56 54 52 50 47 43 41 41 41 39 35 33 36 39 41 57 117 162 176 175 169 166 159 153 146 141 138 134 127 121 113 113 114 113 113 110 101 101
99 94 79 73 71 71 66 61 56 57 56 53 51 48 45 43 40 37 34 33 32 29 27 27 29 29 36 97 164 177 178 177 171 166 161 156 147 148 142 135 129 122 116 114 112 109 106 103 102
100 96 84 77 73 73 69 62 57 57 53 49 48 44 41 37 35 32 28 26 26 23 21 22 24 21 27 45 169 184 181 183 181 181 174 169 166 163 155 153 144 132 122 120 118 109 109 104 106
103 93 85 82 77 75 71 63 55 55 53 48 47 42 38 35 32 29 28 25 22 19 17 17 16 16 21 40 95 189 181 188 192 189 178 175 178 177 174 165 150 138 129 127 122 116 116 112 116
114 105 91 82 76 72 68 63 57 50 47 45 43 41 36 31 28 26 26 23 18 14 11 11 8 9 8 9 4 193 194 199 203 201 189 183 180 180 180 169 163 154 140 134 128 126 127 125 128
129 114 94 83 74 67 67 62 51 43 42 38 35 33 31 27 24 24 22 19 15 10 7 3 1 357 356 352 314 247 213 211 214 213 208 202 194 190 186 183 176 174 167 166 164 156 137 131 136
145 127 70 63 57 59 56 49 42 34 31 30 32 32 27 19 16 16 14 12 11 7 2 360 1 356 355 355 339 250 207 214 219 216 215 211 204 198 198 200 194 188 184 184 189 183 158 155 150
175 154 338 5 40 45 52 26 17 20 18 20 22 22 17 10 8 8 7 4 5 2 356 354 356 356 355 355 342 305 241 228 223 216 215 215 210 202 202 202 199 195 191 183 184 186 173 162 157
210 210 234 296 9 14 32 357 357 0 2 6 6 6 4 1 359 0 1 360 359 358 353 349 351 352 355 358 345 312 274 249 234 219 218 215 212 207 204 204 203 199 195 189 182 179 174 166 163
227 231 244 270 310 329 332 331 341 347 351 353 354 354 352 350 352 354 355 354 353 352 352 349 350 348 346 347 347 323 278 253 235 222 217 213 212 211 209 210 211 207 204 196 187 182 180 178 183
230 238 252 273 294 300 313 318 319 329 336 338 341 342 341 341 346 348 348 346 346 345 349 351 347 351 349 342 338 321 292 256 239 224 222 220 214 214 216 215 217 217 213 208 202 201 204 203 208
237 242 254 270 283 294 309 315 316 318 323 329 333 336 335 336 340 342 341 340 340 343 344 345 346 345 346 341 329 319 301 264 245 237 232 225 218 219 224 219 218 218 220 223 221 219 218 224 229
239 243 252 266 283 292 305 315 310 308 311 319 324 325 328 330 329 332 338 338 335 337 337 340 337 339 340 339 328 317 305 277 256 243 238 235 228 228 229 226 227 228 226 227 229 233 233 236 240
239 244 253 263 271 281 291 283 299 300 303 312 317 319 321 325 323 324 331 335 331 329 329 333 336 333 329 325 318 310 293 281 272 253 244 238 237 234 231 234 233 232 229 230 231 233 238 241 245
239 244 252 260 266 273 284 279 284 297 301 306 310 310 311 318 322 322 327 329 326 326 330 328 330 332 328 321 318 312 297 281 277 262 251 244 245 244 241 237 236 237 236 235 236 236 241 244 247
239 245 252 260 265 268 271 278 281 290 295 299 303 304 301 309 318 324 326 328 331 332 334 332 329 330 331 326 321 319 303 286 279 265 256 250 250 248 250 243 239 240 240 240 242 242 245 247 249
239 243 250 258 262 264 270 275 279 286 290 293 299 299 300 305 313 321 326 328 332 333 337 337 338 333 331 330 325 321 311 296 290 273 258 252 247 251 253 252 246 246 244 245 248 248 250 252 254
239 241 242 245 255 265 272 274 282 285 285 289 293 296 299 303 310 317 323 327 327 327 333 340 340 334 333 332 325 319 315 310 302 291 275 262 259 260 255 252 252 251 250 250 251 252 254 254 258
238 239 240 246 251 255 268 275 281 281 279 282 286 291 296 301 305 312 317 322 324 323 325 330 334 332 330 330 326 325 318 311 305 296 287 271 270 266 259 258 258 256 255 253 253 254 256 258 260
239 240 242 244 251 255 267 276 278 276 271 271 275 285 289 297 302 306 313 316 322 321 320 323 327 323 321 322 322 317 312 311 305 292 286 280 274 270 263 261 262 265 264 260 257 258 258 260 262
239 241 244 245 248 251 260 270 271 271 267 263 268 276 283 291 298 301 304 309 314 318 318 317 321 317 312 313 315 312 305 305 305 296 286 284 281 276 274 268 268 268 268 266 264 261 260 263 265
239 241 244 247 251 253 250 262 267 265 264 261 264 271 277 287 293 298 301 302 306 310 313 313 313 313 307 306 305 305 303 300 298 299 294 286 286 283 279 277 273 271 270 269 268 266 266 267 269